Showing default

SPACEMOBILE-002, 61048

Orbit data source: Space-Track

SPACEMOBILE-002, 61048 is a payload satellite owned by AST & Science (US) in LEO that was launched on Thu, 12 Sep 2024 UTC via an FALCON 9 launch vehicle from the Air Force Eastern Test Range (AFETR). Payload-class satellites include a variety of spacecraft equipped with specific instruments for various scientific and technological missions. These include communications satellites like Starlink; space stations such as the ISS; scientific satellites like the Hubble; Earth observation satellites from companies like Planet Labs, Umbra, and HawkEye 360; GPS; miniature CubeSats for education and research; and military/defense satellites.

Loading next visibility...
Identifier
61048, 2024-163D
Orbit
LEO
Country
Flag of USUS
Related business
Manufacturer
AST & Science
Mission
Operational Commercial Communications
Bus & Motor
BW3, Unknown motor
Mass
1,500 kg wet, 1,500 kg dry
Launch date (UTC)
2024-09-12 (1 year ago)
Launch vehicle
FALCON 9
Launch site
Air Force Eastern Test Range (AFETR)
Object type
Payload
Rocket body
Debris
Shape & HBR
Box + 1 Plate, 6.5 m
Radar Cross Section
32.590 m², Large (>1 m²)

Expand to show TLE details & history
Last TLE update: 14 hours ago

TLE from 14 hours ago
0 SPACEMOBILE-002
1 61048U 24163D   25349.66058458  .00005296  00000-0  25026-3 0  9990
2 61048  52.9805  73.3500 0007344 309.2208  50.8134 15.20985211 69831
Epoch: 2025-12-15T15:51Z
TLE epoch observation values (Epoch: 2025-12-15T15:51:14.507Z)
Latitude
-0.00002°
Longitude
110.98358°
Altitude
500.554 km
Speed
7.617 km/s
True Right ascension
04h 53m 23s
True Declination
0° 00' 00"
Sunlit
Object was in full shadow at epoch
Visualization orbit readout
Latitude
Unknown
Longitude
Unknown
Altitude
Unknown
Speed
Unknown
Apparent Right ascension
Unknown
Apparent Declination
Unknown
Sunlit
N/A
Visualization observer readout
Local Sidereal Time
04:23:31
Azimuth
Unknown
Elevation
Unknown
Doppler factor
Unknown
Orbital elements
Apogee altitude
508.206 km
Perigee altitude
498.098 km
Semi-major axis
6,881.289 km
Eccentricity
0.00073
Inclination
52.9805°
RAAN
73.35°
Arg. of periapsis
309.2208°
True anomaly
50.87867°
Mean anomaly
50.8134°
Eccentric anomaly
50.84603°
Mean motion
3.80223 °/min
Orbital period
94.68 mins
BSTAR
0.00025026
Loading maneuver chart data...
Computing Atmospheric mass density...
Loading historical data...
Loading historical data...
Loading historical data...
Loading historical data...
Loading historical data...
Loading historical data...
Loading historical data...

Documentation

Showing up to 5 results
|